sat.trackr.live / text

‹ back to catalog

STARLINK-5867

NORAD 55918 · 2023-037E

PAYLOAD ACTIVE UNKNOWN

§ Identity

Operator
Country
US
Launch date
2023-03-17
Launch site
AFWTR
Launch vehicle
Mass (kg)
RCS (m²)

Purposes: comms

External: N2YO · Heavens-Above · Gunter

§ Orbital elements

Epoch: 2026-05-25T04:33:11.035584Z

Period
96.11 min
Inclination
69.9992°
Eccentricity
0.0003942
Mean motion
14.98331686 rev/d
Perigee alt
569.3 km
Apogee alt
574.8 km
Semi-major
6,950.2 km
B*
1.3729e-5
RAAN
111.6753°
Arg perigee
264.2227°
Mean anomaly
95.8483°
Rev number
17,494

§ Raw data

STARLINK-58671 55918U 23037E   26145.18971106  .00000071  00000+0  13729-4 0  99972 55918  69.9992 111.6753 0003942 264.2227  95.8483 14.98331686174942

JSON: /api/v1/satellites/55918 · /tle

For live sub-satellite position, see the globe view (requires WebGL).

§ Visibility from observer

Set your observer location to see the next 7 days of passes ≥ 10°. The values pass through the URL so the page stays shareable.

No JS? Fill the form by hand. The geolocation button needs JavaScript.